This is the latest recevied weather packets stored in our database for station/object KE8WMS. If no packets are shown the sender has not sent any weather packets the latest 10 day(s).
| Time | Temp. | Humidity | Pressure | Rain* | Wind** | Luminosity | Snow |
|---|---|---|---|---|---|---|---|
| 1777839243 | 16.67° C | 39% | 1009.4 hPa | 0 mm | - | 220 W/m² | - |
| 1777838941 | 17.22° C | 38% | 1009.4 hPa | 0 mm | - | 161 W/m² | - |
| 1777838636 | 17.22° C | 37% | 1009.6 hPa | 0 mm | - | 585 W/m² | - |
| 1777838334 | 16.67° C | 38% | 1009.7 hPa | 0 mm | - | 620 W/m² | - |
| 1777838030 | 16.11° C | 40% | 1009.7 hPa | 0 mm | - | 589 W/m² | - |
| 1777837727 | 16.67° C | 38% | 1009.6 hPa | 0 mm | - | 176 W/m² | - |
| 1777837423 | 16.11° C | 40% | 1009.8 hPa | 0 mm | - | 227 W/m² | - |
| 1777837119 | 15.56° C | 40% | 1010.1 hPa | 0 mm | - | 230 W/m² | - |
| 1777836815 | 16.11° C | 40% | 1010.1 hPa | 0 mm | - | 235 W/m² | - |
| 1777836511 | 16.67° C | 40% | 1010.1 hPa | 0 mm | - | 249 W/m² | - |
| 1777836207 | 16.67° C | 40% | 1010.3 hPa | 0 mm | - | 244 W/m² | - |
| 1777835903 | 16.11° C | 40% | 1010.3 hPa | 0 mm | - | 774 W/m² | - |
| 1777835601 | 16.11° C | 38% | 1010.3 hPa | 0 mm | - | 300 W/m² | - |
| 1777835298 | 17.78° C | 40% | 1010.5 hPa | 0 mm | - | 200 W/m² | - |
| 1777834995 | 16.67° C | 42% | 1010.5 hPa | 0 mm | - | 719 W/m² | - |
| 1777834692 | 16.67° C | 41% | 1010.7 hPa | 0 mm | - | 337 W/m² | - |
| 1777834388 | 17.22° C | 38% | 1010.8 hPa | 0 mm | - | 657 W/m² | - |
| 1777834087 | 16.67° C | 40% | 1010.6 hPa | 0 mm | - | 787 W/m² | - |
| 1777833784 | 16.67° C | 41% | 1011.1 hPa | 0 mm | - | 812 W/m² | - |
| 1777833480 | 17.22° C | 39% | 1010.7 hPa | 0 mm | - | 250 W/m² | - |
| 1777833178 | 17.22° C | 39% | 1010.9 hPa | 0 mm | - | 786 W/m² | - |
| 1777832875 | 17.22° C | 38% | 1011 hPa | 0 mm | - | 235 W/m² | - |
| 1777832574 | 16.67° C | 41% | 1010.9 hPa | 0 mm | - | 816 W/m² | - |
| 1777832270 | 16.67° C | 42% | 1011 hPa | 0 mm | - | 575 W/m² | - |
| 1777831967 | 16.67° C | 38% | 1011.2 hPa | 0 mm | - | 816 W/m² | - |
* Rain latest hour (hover to see other rain measurements)
** Current wind speed in m/s (hover to see current wind gust speed)